www.srh.weather.gov   
NOAA logo - Click to go to the NOAA homepage   NWS logo
Regional Weather Roundup
Enter Your "City, ST" or zip code   
Current Version              Previous Version:    01  02  03  04  05  06  07  08  09  10  11  12  13  14  15  16  17  18  19  20  21  22  23  24  25  26  27  28  29  30  
   31  32  33  34  35  36  37  38  39  40  41  42  43  44  45  46  47  48  49  50  51  52  53  54  55  56  57  58  59  60  
[Printable]
062
ASUS43 KFGF 230231
RWRFGF
PRAIRIE TO PINES  WEATHER ROUNDUP
NATIONAL WEATHER SERVICE EASTERN NORTH DAKOTA/GRAND FORKS ND
800 PM CST SAT NOV 22 2014

 **SATELLITE DATA USED TO AUGMENT SKY COVER AT AUTOMATED STATIONS**
 *****  WEATHER ACROSS EASTERN NORTH DAKOTA  *****

CITY           SKY/WX    TMP DP  RH WIND       PRES   REMARKS
GRAND FORKS    MOCLDY    37  30  75 S12       29.37F
GRAND FRKS AFB CLOUDY    35  31  86 S15       29.36F
GRAND FRKS NWS   N/A     34 N/A N/A S15         N/A  WCI  24
DEVILS LAKE    CLOUDY    36  25  64 SE10      29.29F
FARGO          CLOUDY    35  31  85 S20G31    29.41F WCI  24
WAHPETON ARPT  CLOUDY    32  32 100 SE15      29.42F WCI  22
$$

 ***** WEATHER ACROSS CENTRAL AND WESTERN NORTH DAKOTA  *****

CITY           SKY/WX    TMP DP  RH WIND       PRES   REMARKS
BISMARCK       PTCLDY    34  32  92 SW5       29.34F
MINOT          MOCLDY    42  31  64 SW14      29.25R
JAMESTOWN      CLOUDY    34  28  79 S7        29.33F
MINOT AFB      MOCLDY    40  33  75 W12       29.24S
GARRISON         N/A     35  30  82 W8        29.29R
WILLISTON      PTCLDY    34  30  85 SW8       29.30R
DICKINSON      PTCLDY    38  33  82 SW12      29.31S
HETTINGER      MOCLDY    37  33  85 S6        29.38S
$$

 *****  OTHER AIRPORT OBSERVATIONS IN OUR AREA  *****

CITY           SKY/WX    TMP DP  RH WIND       PRES   REMARKS
WALHALLA         N/A     32  32 100 SE9       29.35F WCI  24
GRAFTON AIRPOR FAIR      32  28  86 SE8       29.35F WCI  25
VALLEY CITY AR CLOUDY    32  32 100 S7        29.35F
CANDO          CLOUDY    36  28  75 SE18G24   29.26F
CAVALIER APRT  FAIR      32  28  86 S3        29.37S
GWINNER        CLEAR     32  32 100 SE8       29.37F WCI  25
SHEYENNE NWR     N/A     33  31  93 SE10      29.95S WCI  25
ROLLA          CLOUDY    34  30  86 SW12      29.29R
 ***** THE ABOVE OBSERVATIONS ARE NON NWS ARE NOT QUALITY
       CONTROLLED AND MAY MIS-REPORT RAIN FOR SNOW...
$$

  *****  WEATHER ACROSS NORTHERN MINNESOTA  *****

CITY           SKY/WX    TMP DP  RH WIND       PRES   REMARKS
FLAG ISLAND    CLOUDY    34  30  86 E10       29.45F
WARROAD        CLOUDY    34  30  86 E8        29.43F
ROSEAU         CLOUDY    37  30  75 E9        29.41F
HALLOCK        CLOUDY    37  30  75 SE10      29.35F
THF RVR FALLS  MOCLDY    37  30  75 SE8       29.40F
BAUDETTE       CLOUDY    35  30  82 SE7       29.47F
WASKISH        MOCLDY    37  30  75 CALM      29.46F
CROOKSTON      MOCLDY    37  30  75 S14       29.40F
STEPHEN NDAWN    N/A     37  30  75 SE10        N/A
GREENBUSH NDAW   N/A     36  30  80 SE12        N/A
$$
  *****  WEATHER ACROSS CENTRAL AND WEST MINNESOTA  *****

CITY           SKY/WX    TMP DP  RH WIND       PRES   REMARKS
FOSSTON        CLOUDY    37  28  70 SE9       29.41S
BEMIDJI        CLOUDY    34  29  82 SE12      29.44F
PARK RAPIDS    CLOUDY    31  30  96 SE17      29.46F WCI  19
ELBOW LAKE       N/A     33  33 100 SE13G18   29.43F FOG     WCI  24
WADENA         FOG       30  30 100 SE14      29.46F VSB 1   WCI  20
DETROIT LAKES  CLOUDY    32  32 100 SE15      29.45S WCI  22
MOORHEAD       CLOUDY    36  36 100 S16G26    29.41F FOG
FERGUS FALLS   CLOUDY    34  32  93 SE16      29.46F FOG     WCI  23
MORRIS MN      FOG       34  34 100 SE18      29.42F VSB 1/4 WCI  23
STAPLES        CLOUDY    30  30 100 SE8       29.49F FOG     WCI  23
$$
  *****  WEATHER ELSEWHERE ACROSS MINNESOTA  *****

CITY           SKY/WX    TMP DP  RH WIND       PRES   REMARKS
DULUTH         CLOUDY    33  31  92 SE9       29.58F FOG
INTRNTL FALLS  CLOUDY    34  30  85 SE8       29.53R
ELY            CLOUDY    30  28  93 S5        29.57S FOG
CLOQUET        CLOUDY    34  30  86 SE5       29.58S FOG
WHEATON        CLOUDY    30  30 100 SE15      29.44F FOG     WCI  19
BRAINERD       CLOUDY    31  31 100 S9        29.54R FOG     WCI  23
HIBBING        CLOUDY    33  29  85 SE8       29.56F
ALEXANDRIA     FOG       33  32  96 SE14      29.47F VSB 1/2 WCI  23
SAINT CLOUD    FOG       34  33  96 SE9       29.55S VSB 3/4
MINNEAPOLIS    CLOUDY    36  35  96 SE9       29.59F FOG
$$

  *****  WEATHER ACROSS SOUTH DAKOTA  *****

CITY           SKY/WX    TMP DP  RH WIND       PRES   REMARKS
SIOUX FALLS    CLOUDY    40  37  89 S14       29.46F
BROOKINGS      NOT AVBL
WATERTOWN      MOCLDY    34  31  88 S9        29.41R
HURON          MOCLDY    37  33  85 S8        29.41S
SISSETON         N/A     32  31  96 S10       29.40F WCI  24
ABERDEEN       MOCLDY    32  29  88 S6        29.39S
MITCHELL       PTCLDY    44  34  67 SW8       29.45R
PIERRE         CLOUDY    41  31  67 SW6       29.41S
MOBRIDGE       CLOUDY    37  31  78 CALM      29.35F
RAPID CITY     CLOUDY    44  30  57 E3        29.42R
$$

  *****  SOME WEATHER IN NEARBY STATES *****

CITY           SKY/WX    TMP DP  RH WIND       PRES   REMARKS
GLASGOW MT     PTCLDY    39  27  62 W23G32    29.29S
GREAT FALLS MT PTCLDY    36  18  48 W16       29.52R
CHEYENNE WY    MOCLDY    41  23  48 W8        29.58F
SCOTTSBLUFF NE CLOUDY    41  30  65 E3        29.54S
OMAHA NE       CLOUDY    54  53  97 S14       29.60S
DES MOINES IA  CLOUDY    56  51  84 S12       29.67S
DAVENPORT IA   CLOUDY    54  47  77 S15G24    29.79F
CHICAGO IL     CLOUDY    52  45  77 S16       29.85F
EAU CLAIRE WI  CLOUDY    36  35  96 SE5       29.66F FOG
LA CROSSE WI   CLOUDY    41  39  93 SE5       29.67F FOG
$$

  *****  SOME NATIONAL WEATHER *****

CITY           SKY/WX    TMP DP  RH WIND       PRES   REMARKS
LA GUARDIA NY  CLOUDY    44  19  36 SW14G22   30.22F
RALEIGH NC     PTCLDY    37  20  50 CALM      30.36S
ATLANTA GA     CLOUDY    55  28  35 E9        30.25F
NEW ORLEANS LA CLOUDY    63  60  90 E12       29.99F
OKLAHOMA CITY  CLOUDY    57  52  83 SE13      29.74S
ALBUQUERQUE NM MOCLDY    51  15  23 NW6       29.91S
SALT LAKE CITY CLOUDY    35  34  96 S6        29.85S
LOS ANGELES CA MOCLDY    64  53  67 SW7       30.01S
BOISE ID       CLOUDY    40  34  79 W8        29.90R
SEATTLE WA     MOCLDY    46  42  86 S6        30.02R
$$

*** WEATHER ACROSS MANITOBA...SASKATCHEWAN AND ONTARIO ***
                ***ONTARIO***

CITY           SKY/WX    TMP DP  RH WIND       PRES   REMARKS
GERALDTON      CLOUDY    27  23  86 NE7       29.67F WCI  19
THUNDER BAY    CLOUDY    36  32  87 E6        29.66S
SIOUX LOOKOUT  CLOUDY    27  23  86 SE5       29.58S WCI  21
TORONTO        LGT RAIN  41  39  93 SW10      29.93F
BIG TROUT LK   CLEAR      1   0  92 NW5       29.73R WCI  -8
PICKLE LAKE    FLURRIES  16  10  79 E7        29.63F WCI   6
DRYDEN         CLOUDY    28  27  93 E7        29.55S WCI  21
KENORA         FLURRIES  32  28  86 SE13      29.48F WCI  22
$$
                *** MANITOBA***

CITY           SKY/WX    TMP DP  RH WIND       PRES   REMARKS
BRANDON        FOG       25  25 100 E16       29.31F VSB 5/8 WCI  12
DAUPHIN        NOT AVBL
ISLAND LAKE    MOCLDY     3   1  92 NE3       29.70R
PILOT MOUND      N/A     30  28  93 SE13G24     N/A  WCI  20
THE PAS        FLURRIES   7   3  85 NE10G18   29.59R WCI  -8
THOMPSON       CRYSTALS -11 -15  84 NE5       29.76R WCI -23
WINNIPEG       CLOUDY    28  25  86 NE9       29.42S WCI  20
LYNN LAKE      CLEAR    -15 -20  76 N5        29.73R WCI -27
CHURCHILL      CLEAR    -17 -22  76 W7        29.79R WCI -33
GILLAM         CLEAR    -17 -22  76 NW2       29.79S
$$
                ***SASKATCHEWAN***

CITY           SKY/WX    TMP DP  RH WIND       PRES   REMARKS
ESTEVAN        CLEAR     34  28  80 SW9       29.20S
KINDERSLEY     LGT SNOW  23  19  86 N17       29.29R DRFTSNOWWCI   9
LLOYDMINSTER   LGT SNOW  19  18  93 N9        29.41R DRFTSNOWWCI   9
PRINCE ALBERT  LGT SNOW  14  10  85 NE15G23   29.41R DRFTSNOWWCI  -1
REGINA         CLOUDY    36  32  87 S8        29.10F
YORKTON        FLURRIES  21  19  93 E17       29.24F WCI   7
N. BATTLEFORD  LGT SNOW  21  18  86 NE12G18   29.38R WCI   9
LA RONGE       FLURRIES   7   3  85 NE13      29.61R WCI  -9
SASKATOON      LGT SNOW  19  16  86 NE25G35   29.26R DRFTSNOWWCI   2
SWIFT CURRENT  LGT SNOW  32  30  93 W25G32    29.15R WCI  19
$$
NOTE: THESE ARE AUTOMATED STATIONS WITH LIMITED QUALITY CONTROL
      "FAIR" INDICATES FEW OR NO CLOUDS BELOW 12,000 FEET WITH NO
      SIGNIFICANT WEATHER AND/OR OBSTRUCTIONS TO VISIBILITY.
      SKY/WX - SKY CONDITION AND SIGNIFICANT WEATHER.
      TMP - AIR TEMPERATURE.    DP   - DEWPOINT TEMPERATURE.
      RH  - RELATIVE HUMIDITY.  PRES - PRESSURE.
      HX  - HEAT INDEX.         WCI  - WIND CHILL INDEX.
$



National Weather Service
Disclaimer
Last Modified: August 31, 2005
Privacy Policy